TimeMST,TemperatureF,Dew PointF,Humidity,Sea Level PressureIn,VisibilityMPH,Wind Direction,Wind SpeedMPH,Gust SpeedMPH,PrecipitationIn,Events,Conditions,WindDirDegrees,DateUTC
12:53 AM,21.9,18.0,85,29.63,1.5,NNW,18.4,27.6,0.01,Snow,Light Snow,340,2013-02-10 07:53:00
1:17 AM,21.2,17.6,86,29.54,2.5,NNW,18.4,26.5,0.00,Snow,Light Snow,330,2013-02-10 08:17:00
1:53 AM,21.0,17.1,85,29.65,1.8,NNW,19.6,25.3,0.00,Snow,Light Snow,330,2013-02-10 08:53:00
2:12 AM,21.2,17.6,86,29.54,2.0,NNW,24.2,33.4,0.01,Snow,Light Snow,340,2013-02-10 09:12:00
2:24 AM,21.2,17.6,86,29.55,1.2,North,17.3,28.8,0.01,Snow,Light Snow,350,2013-02-10 09:24:00
2:53 AM,21.0,17.1,85,29.67,1.2,NNW,19.6,32.2,0.01,Snow,Light Snow,340,2013-02-10 09:53:00
3:25 AM,21.2,17.6,86,29.56,2.5,NNW,24.2,35.7,0.00,Snow,Light Snow,340,2013-02-10 10:25:00
3:33 AM,19.4,15.8,86,29.56,3.0,North,23.0,35.7,0.00,Snow,Light Snow,350,2013-02-10 10:33:00
3:53 AM,21.0,16.0,81,29.69,3.0,NNW,23.0,34.5,0.00,Snow,Light Snow,340,2013-02-10 10:53:00
4:26 AM,19.4,15.8,86,29.58,2.0,North,19.6,34.5,0.00,Snow,Light Snow,360,2013-02-10 11:26:00
4:31 AM,19.4,15.8,86,29.58,1.8,North,19.6,32.2,0.00,Snow,Light Snow,350,2013-02-10 11:31:00
4:53 AM,19.9,16.0,85,29.73,2.0,North,19.6,29.9,0.00,Snow,Light Snow,350,2013-02-10 11:53:00
5:00 AM,19.4,15.8,86,29.59,3.0,North,18.4,27.6,0.01,Snow,Light Snow,350,2013-02-10 12:00:00
5:15 AM,19.4,15.8,86,29.60,1.8,NNW,18.4,26.5,0.01,Snow,Light Snow,340,2013-02-10 12:15:00
5:53 AM,19.9,16.0,85,29.77,2.5,NNW,13.8,-,0.01,Snow,Light Snow,330,2013-02-10 12:53:00
6:05 AM,19.4,15.8,86,29.62,3.0,NW,12.7,20.7,0.00,Snow,Light Snow,320,2013-02-10 13:05:00
6:48 AM,21.2,15.8,80,29.64,2.0,NNW,13.8,24.2,0.00,Snow,Light Snow,330,2013-02-10 13:48:00
6:53 AM,21.0,16.0,81,29.79,2.0,NNW,12.7,-,0.00,Snow,Light Snow,330,2013-02-10 13:53:00
7:05 AM,21.2,15.8,80,29.65,4.0,NNW,15.0,-,0.00,Snow,Light Snow,330,2013-02-10 14:05:00
7:48 AM,21.2,15.8,80,29.67,1.8,NNW,13.8,21.9,0.01,Snow,Light Snow,340,2013-02-10 14:48:00
7:53 AM,21.0,17.1,85,29.82,1.5,NNW,13.8,19.6,0.01,Snow,Light Snow,330,2013-02-10 14:53:00
8:11 AM,21.2,15.8,80,29.69,0.5,NNW,13.8,27.6,0.00,Snow,Light Snow,330,2013-02-10 15:11:00
8:29 AM,21.2,17.6,86,29.70,0.5,NW,13.8,21.9,0.00,Fog-Snow,Snow,320,2013-02-10 15:29:00
8:53 AM,21.0,16.0,81,29.85,0.5,NNW,15.0,21.9,0.01,Snow,Light Snow,330,2013-02-10 15:53:00
9:03 AM,21.2,15.8,80,29.71,0.8,NNW,13.8,25.3,0.00,Snow,Light Snow,340,2013-02-10 16:03:00
9:49 AM,21.2,15.8,80,29.73,1.5,NW,16.1,25.3,0.00,Snow,Light Snow,320,2013-02-10 16:49:00
9:53 AM,21.9,16.0,78,29.87,2.0,NNW,13.8,21.9,0.00,Snow,Light Snow,330,2013-02-10 16:53:00
10:00 AM,21.2,15.8,80,29.73,3.0,NNW,15.0,23.0,0.00,Snow,Light Snow,330,2013-02-10 17:00:00
10:13 AM,21.2,15.8,80,29.74,1.0,NNW,16.1,27.6,0.01,Snow,Light Snow,340,2013-02-10 17:13:00
10:37 AM,23.0,15.8,74,29.75,3.0,NNW,17.3,28.8,0.01,Snow,Light Snow,340,2013-02-10 17:37:00
10:53 AM,23.0,14.0,68,29.89,3.0,NNW,17.3,29.9,0.01,,Overcast,340,2013-02-10 17:53:00
11:53 AM,24.1,12.9,62,29.88,10.0,North,16.1,29.9,N/A,,Partly Cloudy,350,2013-02-10 18:53:00
12:27 PM,23.0,15.8,74,29.76,9.0,NNW,21.9,31.1,0.00,Snow,Light Snow,340,2013-02-10 19:27:00
12:53 PM,24.1,15.1,69,29.90,9.0,North,17.3,27.6,0.00,,Mostly Cloudy,350,2013-02-10 19:53:00
1:01 PM,23.0,14.0,68,29.76,10.0,NNW,20.7,31.1,N/A,,Scattered Clouds,340,2013-02-10 20:01:00
1:53 PM,23.0,12.9,65,29.93,10.0,North,18.4,29.9,N/A,,Clear,350,2013-02-10 20:53:00
2:53 PM,21.9,12.0,66,29.95,10.0,North,21.9,29.9,N/A,,Partly Cloudy,360,2013-02-10 21:53:00
3:53 PM,19.9,10.9,68,29.99,10.0,North,13.8,25.3,N/A,,Clear,360,2013-02-10 22:53:00
4:53 PM,19.0,10.0,68,30.02,10.0,North,10.4,-,N/A,,Clear,350,2013-02-10 23:53:00
5:53 PM,17.1,9.0,71,30.05,10.0,North,8.1,-,N/A,,Clear,350,2013-02-11 00:53:00
6:22 PM,15.8,10.4,79,29.87,10.0,North,11.5,20.7,N/A,,Partly Cloudy,360,2013-02-11 01:22:00
6:53 PM,15.1,10.0,80,30.07,10.0,North,-9999.0,-,N/A,,Clear,0,2013-02-11 01:53:00
7:53 PM,14.0,9.0,80,30.08,10.0,North,17.3,25.3,N/A,,Clear,350,2013-02-11 02:53:00
8:53 PM,12.9,8.1,81,30.12,10.0,North,12.7,-,N/A,,Clear,360,2013-02-11 03:53:00
9:53 PM,10.9,8.1,88,30.14,10.0,NNW,9.2,-,N/A,,Clear,330,2013-02-11 04:53:00
10:53 PM,8.1,5.0,87,30.17,10.0,NW,6.9,-,N/A,,Clear,310,2013-02-11 05:53:00
11:53 PM,6.1,3.0,87,30.19,10.0,Calm,Calm,-,N/A,,Clear,0,2013-02-11 06:53:00